Location: Airlie Beach - Cannonvale QLD, Australia
(20.2768°S, 148.7558°E)
Time: 04:32:37
(UTC+10:00)

BlueWalker 3 - Pass Details

Date: 28 March 2023
Orbit: 494 x 513 km, 53.2° (Epoch: 31 May)

Event Time Altitude Azimuth Distance (km) Brightness Sun altitude
Rises 05:26:35 0° 357° (N) 2,555 5.5 -11.2°
Reaches altitude 10° 05:29:24 10° 19° (NNE) 1,683 4.8 -10.5°
Maximum altitude 05:31:47 16° 58° (ENE) 1,364 5.0 -10.0°
Drops below altitude 10° 05:34:10 10° 97° (E) 1,699 6.3 -9.4°
Sets 05:37:01 0° 119° (ESE) 2,594 6.8 -8.8°
